Flight Track Log - Related Links

Times and Time Zones

All times are in EDT time to prevent confusion due to time zone crossing. See the CPT7773 flight status page for this flight to view local times or setup timezone preferences in your user account.

Time Position Orientation Groundspeed Altitude Reporting Facility
EDT Latitude Longitude Course Direction KTS MPH feet Rate Location/Type
Tue 08:14:28 PM 44.3450 -108.6425 133° Southeast 148 170 12,100  Level Salt Lake Center
Tue 08:15:29 PM 44.3128 -108.5936 133° Southeast 156 180 12,100  Level Salt Lake Center
Tue 08:16:31 PM 44.2767 -108.5394 133° Southeast 171 197 12,100  Level Salt Lake Center
Tue 08:17:33 PM 44.2417 -108.4856 132° Southeast 181 208 12,100  Level Salt Lake Center
Tue 08:18:35 PM 44.2081 -108.4322 131° Southeast 184 212 12,100  Level Salt Lake Center
Tue 08:19:36 PM 44.1692 -108.3700 131° Southeast 182 209 12,100  Level Salt Lake Center
Tue 08:20:38 PM 44.1381 -108.3200 131° Southeast 178 205 12,100  Level Salt Lake Center
Tue 08:21:40 PM 44.1056 -108.2697 132° Southeast 176 203 12,100  Level Salt Lake Center
Tue 08:22:41 PM 44.0722 -108.2203 133° Southeast 175 201 12,100  Level Salt Lake Center
Tue 08:23:43 PM 44.0403 -108.1711 132° Southeast 174 200 12,100 -48 Level Salt Lake Center
Tue 08:24:45 PM 44.0089 -108.1217 131° Southeast 173 199 12,000 -48 Descending Salt Lake Center
Tue 08:25:47 PM 43.9792 -108.0742 131° Southeast 169 194 12,000  Level Salt Lake Center
Tue 08:26:48 PM 43.9417 -108.0189 133° Southeast 166 191 12,000  Level Salt Lake Center
Tue 08:27:50 PM 43.9106 -107.9697 131° Southeast 168 193 12,000  Level Salt Lake Center
Tue 08:28:52 PM 43.8781 -107.9228 134° Southeast 169 194 12,000 49 Level Salt Lake Center
Tue 08:29:53 PM 43.8486 -107.8761 131° Southeast 166 191 12,100  Climbing Salt Lake Center
Tue 08:30:55 PM 43.8186 -107.8294 132° Southeast 164 189 12,000 -48 Descending Salt Lake Center
Tue 08:31:57 PM 43.7872 -107.7819 132° Southeast 166 191 12,000 38 Level Salt Lake Center
Tue 08:33:32 PM 43.7453 -107.7164 132° Southeast 164 189 12,100 38 Climbing Denver Center
Tue 08:34:34 PM 43.7103 -107.6625 132° Southeast 161 185 12,100  Level Denver Center
Tue 08:35:36 PM 43.6733 -107.6064 132° Southeast 162 186 12,100 -48 Level Denver Center
Tue 08:36:38 PM 43.6419 -107.5608 134° Southeast 163 188 12,000  Descending Denver Center
Tue 08:37:39 PM 43.6111 -107.5125 131° Southeast 165 190 12,100 49 Climbing Denver Center
Tue 08:38:41 PM 43.5789 -107.4661 134° Southeast 166 191 12,100  Level Denver Center
Tue 08:39:43 PM 43.5486 -107.4181 131° Southeast 167 192 12,100 -48 Level Denver Center
Tue 08:40:45 PM 43.5178 -107.3711 132° Southeast 166 191 12,000  Descending Denver Center
Tue 08:41:47 PM 43.4814 -107.3156 132° Southeast 165 190 12,100 48 Climbing Denver Center
Tue 08:42:49 PM 43.4508 -107.2697 133° Southeast 164 189 12,100  Level Denver Center
Tue 08:43:50 PM 43.4206 -107.2239 132° Southeast 163 188 12,100  Level Denver Center
Tue 08:44:52 PM 43.3861 -107.1761 135° Southeast 171 197 12,100  Level Denver Center
Tue 08:45:54 PM 43.3547 -107.1275 132° Southeast 170 196 12,100  Level Denver Center
Tue 08:46:56 PM 43.3233 -107.0806 133° Southeast 168 193 12,100  Level Denver Center
Tue 08:47:57 PM 43.2922 -107.0331 132° Southeast 168 193 12,100  Level Denver Center
Tue 08:48:59 PM 43.2533 -106.9750 133° Southeast 172 198 12,100  Level Denver Center
Tue 08:50:00 PM 43.2272 -106.9367 133° Southeast 172 198 12,100  Level Denver Center
Tue 08:51:03 PM 43.1875 -106.8814 135° Southeast 172 198 12,100  Level Denver Center
Tue 08:52:04 PM 43.1536 -106.8372 136° Southeast 169 194 12,100  Level Denver Center
Tue 08:53:06 PM 43.1181 -106.7869 134° Southeast 165 190 12,100  Level Denver Center
Tue 08:54:08 PM 43.0881 -106.7433 133° Southeast 165 190 12,100 -290 Level Denver Center
Tue 08:55:10 PM 43.0547 -106.7000 136° Southeast 170 196 11,500 -1,024 Descending Denver Center
Tue 08:56:11 PM 43.0133 -106.6464 137° Southeast 180 207 10,000 -1,268 Descending Denver Center
Tue 08:57:13 PM 42.9817 -106.6006 133° Southeast 178 205 8,900 -1,258 Descending Denver Center
Tue 08:58:15 PM 42.9378 -106.5569 144° Southeast 173 199 7,400 -823 Descending Denver Center
Tue 08:59:17 PM 42.9025 -106.5203 143° Southeast 173 199 7,200 -194 Descending Denver Center
Tue 09:01:00 PM 42.9080 -106.4644 124° Southeast  Level Estimated
Tue 09:08:00 PM 42.9080 -106.4644 124° Southeast  Level Estimated
Tue 09:09:00 PM 42.9080 -106.4644 124° Southeast  Level Estimated

Login

Don't have an account? Register now (free) for customized features, flight alerts, and more!